Regional Weather Roundup
Issued by NWS

Home | Current Version | Previous Version | Graphics & Text | Print | Product List | Glossary On
Versions: 1 2 3 4 5 6 7 8 9 10 11 12 13 14 15 16 17 18 19 20 21 22 23 24 25 26 27 28 29 30 31 32 33 34 35 36 37 38 39 40 41 42 43 44 45 46 47 48 49 50
000
ASUS43 KMKX 051211
RWRWI

WISCONSIN REGIONAL WEATHER ROUNDUP
NATIONAL WEATHER SERVICE MILWAUKEE/SULLIVAN WI
700 AM CDT SUN JUL 05 2015

NOTE: "FAIR" INDICATES FEW OR NO CLOUDS BELOW 12,000 FEET WITH NO
SIGNIFICANT WEATHER AND/OR OBSTRUCTIONS TO VISIBILITY.

WIZ001-002-006>008-014>016-023>028-051300-
NORTHWEST WISCONSIN

CITY           SKY/WX    TMP DP  RH WIND       PRES   REMARKS
SUPERIOR ARPT  PTSUNNY   54  54 100 CALM      29.93F FOG
6HR MIN TEMP:  51; 6HR MAX TEMP:  57;

ASHLAND        SUNNY     65  64  97 SW6       29.94S FOG
6HR MIN TEMP:  53; 6HR MAX TEMP:  65;

HAYWARD        MOSUNNY   67  61  81 S7        29.97S
6HR MIN TEMP:  61; 6HR MAX TEMP:  69;

SIREN          MOSUNNY   66  60  81 S7        29.95R
6HR MIN TEMP:  63; 6HR MAX TEMP:  69;

CUMBERLAND     SUNNY     63  59  88 S5        29.98F
RICE LAKE      SUNNY     64  60  87 SE5       30.00S
6HR MIN TEMP:  63; 6HR MAX TEMP:  67;

CHETEK         SUNNY     64  61  93 E5        29.99S
6HR MIN TEMP:  63; 6HR MAX TEMP:  66;

LADYSMITH      SUNNY     64  62  93 SE5       30.02F FOG
6HR MIN TEMP:  62; 6HR MAX TEMP:  66;

EAU CLAIRE     SUNNY     65  60  84 S5        29.99R
6HR MIN TEMP:  61; 6HR MAX TEMP:  68;

MENOMONIE      SUNNY     64  61  92 E3        30.00R
6HR MIN TEMP:  61; 6HR MAX TEMP:  67;

NEW RICHMOND   SUNNY     65  60  83 S9        29.97S
6HR MIN TEMP:  61; 6HR MAX TEMP:  67;

OSCEOLA        MOSUNNY   65  64  96 S7        29.97F
6HR MIN TEMP:  63; 6HR MAX TEMP:  67;

$$

WIZ003>005-009-010-017-018-051300-
NORTH CENTRAL WISCONSIN

CITY           SKY/WX    TMP DP  RH WIND       PRES   REMARKS
MANITOWISH WTR SUNNY     63  63 100 S6        30.01F FOG
6HR MIN TEMP:  58; 6HR MAX TEMP:  63;

ARBOR VITAE    SUNNY     63  62  95 S5        30.03F FOG
6HR MIN TEMP:  62; 6HR MAX TEMP:  63;

WOODRUFF       SUNNY     63  62  95 S5        30.03F FOG
6HR MIN TEMP:  62; 6HR MAX TEMP:  63;

RHINELANDER    CLOUDY    64  62  93 SW3       30.06R FOG
6HR MIN TEMP:  60; 6HR MAX TEMP:  64;

EAGLE RIVER    SUNNY     64  64 100 SW3       30.04R FOG
LAND O LAKES     N/A     63  63 100 CALM      30.04F FOG
6HR MIN TEMP:  57; 6HR MAX TEMP:  63;

PHILLIPS       MOSUNNY   64  62  93 S8        30.01F
6HR MIN TEMP:  60; 6HR MAX TEMP:  65;

TOMAHAWK       CLOUDY    61  60  97 CALM      30.06R FOG
6HR MIN TEMP:  56; 6HR MAX TEMP:  61;

MEDFORD        SUNNY     61  61  97 SE3       30.05R FOG
6HR MIN TEMP:  58; 6HR MAX TEMP:  67;

MERRILL        CLOUDY    60  60 100 CALM      30.05S FOG
6HR MIN TEMP:  54; 6HR MAX TEMP:  60;

$$

WIZ029-030-035-036-043>047-051300-
CENTRAL WISCONSIN

CITY           SKY/WX    TMP DP  RH WIND       PRES   REMARKS
WAUSAU         CLOUDY    66  63  90 S3        30.03F FOG
6HR MIN TEMP:  61; 6HR MAX TEMP:  69;

MOSINEE        CLOUDY    64  63  94 SW5       30.06R
MARSHFIELD     SUNNY     63  60  90 S3        30.04S FOG
6HR MIN TEMP:  60; 6HR MAX TEMP:  64;

STEVENS POINT  SUNNY     62  59  90 S3        30.06S
6HR MIN TEMP:  59; 6HR MAX TEMP:  65;

WAUPACA        SUNNY     62  61  97 CALM      30.05S FOG
6HR MIN TEMP:  59; 6HR MAX TEMP:  65;

WAUTOMA        FOG       59  59 100 CALM      30.07R VSB 3/4
6HR MIN TEMP:  56; 6HR MAX TEMP:  63;

WISC RAPIDS    SUNNY     64  60  87 S5        30.05F
6HR MIN TEMP:  61; 6HR MAX TEMP:  66;

CAMP DOUGLAS   SUNNY     61  61 100 S5        30.04R
6HR MIN TEMP:  57; 6HR MAX TEMP:  61;

$$

WIZ011>013-019>022-031-037>040-048>050-051300-
NORTHEAST WISCONSIN

CITY           SKY/WX    TMP DP  RH WIND       PRES   REMARKS
ANTIGO         PTSUNNY   64  63  97 SW5       30.06S FOG
SHAWANO        SUNNY     65  63  90 CALM      30.05S FOG
6HR MIN TEMP:  65; 6HR MAX TEMP:  69;

OCONTO         MOSUNNY   62  62 100 CALM      30.04S
6HR MIN TEMP:  57; 6HR MAX TEMP:  62;

STURGEON BAY   CLOUDY    63  57  82 S6        30.08S
6HR MIN TEMP:  59; 6HR MAX TEMP:  63;

GREEN BAY      SUNNY     65  63  93 CALM      30.05S FOG
6HR MIN TEMP:  61; 6HR MAX TEMP:  65;

MANITOWOC      SUNNY     61  59  93 MISG      30.06R
6HR MIN TEMP:  57; 6HR MAX TEMP:  61;

APPLETON       PTSUNNY   66  61  82 SW7       30.06R
CLINTONVILLE   SUNNY     61  61 100 CALM      30.04S FOG
OSHKOSH        SUNNY     66  61  84 S6        30.05R
6HR MIN TEMP:  62; 6HR MAX TEMP:  67;

$$

WIZ032>034-041-042-053>061-051300-
SOUTHWEST WISCONSIN

CITY           SKY/WX    TMP DP  RH WIND       PRES   REMARKS
LA CROSSE      SUNNY     66  62  87 SE5       30.00F
6HR MIN TEMP:  64; 6HR MAX TEMP:  69;

SPARTA         SUNNY     57  56  94 CALM      30.03F
6HR MIN TEMP:  54; 6HR MAX TEMP:  61;

VIROQUA        SUNNY     63  62  96 SE6       30.04F
6HR MIN TEMP:  61; 6HR MAX TEMP:  66;

BOSCOBEL       FOG       61  59  93 CALM      30.05R VSB<1/4
6HR MIN TEMP:  57; 6HR MAX TEMP:  61;

PRAIRIE DU CHI SUNNY     63  59  88 E3        30.03S
6HR MIN TEMP:  60; 6HR MAX TEMP:  63;

PLATTEVILLE    SUNNY     63  61  94 SE5       30.06R
6HR MIN TEMP:  61; 6HR MAX TEMP:  65;

$$

WIZ056-057-062-063-064-067-068-051300-
SOUTH CENTRAL WISCONSIN

CITY           SKY/WX    TMP DP  RH WIND       PRES   REMARKS
REEDSBURG      SUNNY     62  60  92 CALM      30.05R
6HR MIN TEMP:  58; 6HR MAX TEMP:  63;

BARABOO/DELLS  SUNNY     63  60  91 S3        30.06R
6HR MIN TEMP:  58; 6HR MAX TEMP:  64;

LONE ROCK      SUNNY     60  57  89 CALM      30.06S
6HR MIN TEMP:  56; 6HR MAX TEMP:  61;

MINERAL POINT  SUNNY     63  61  94 S5        30.07R
MADISON        SUNNY     66  60  81 S5        30.06S
6HR MIN TEMP:  61; 6HR MAX TEMP:  69;

MIDDLETON      SUNNY     64  63  95 CALM      30.07S
6HR MIN TEMP:  60; 6HR MAX TEMP:  68;

WATERTOWN      SUNNY     60  60 100 CALM      30.07S FOG
6HR MIN TEMP:  58; 6HR MAX TEMP:  63;

MONROE         SUNNY     63  59  88 S5        30.07S
JANESVILLE     SUNNY     63  61  94 CALM      30.07S
$$

WIZ051-052-058>065-066-070>072-051300-
SOUTHEAST WISCONSIN

CITY           SKY/WX    TMP DP  RH WIND       PRES   REMARKS
MILWAUKEE      MOSUNNY   67  60  78 CALM      30.08R HAZE
6HR MIN TEMP:  62; 6HR MAX TEMP:  67;

WAUKESHA       SUNNY     63  61  94 CALM      30.10R
MILWAUKEE/TIMM SUNNY     63  57  82 CALM      30.09R HAZE
RACINE         SUNNY     65  58  78 CALM      30.10R HAZE
6HR MIN TEMP:  59; 6HR MAX TEMP:  66;

BURLINGTON       N/A     56  56  99 CALM      30.09R FOG
6HR MIN TEMP:  52; 6HR MAX TEMP:  59;

KENOSHA        SUNNY     62  59  90 W3        30.09R FOG
6HR MIN TEMP:  56; 6HR MAX TEMP:  62;

FOND DU LAC    SUNNY     65  62  90 S5        30.07R
6HR MIN TEMP:  62; 6HR MAX TEMP:  66;

SHEBOYGAN      SUNNY     64  61  90 CALM      30.07R FOG
6HR MIN TEMP:  59; 6HR MAX TEMP:  64;

WEST BEND      SUNNY     61  59  94 CALM      30.08R FOG
JUNEAU         SUNNY     62  60  94 SE5       30.08S FOG
6HR MIN TEMP:  60; 6HR MAX TEMP:  66;

$$

LSZ147-162-051300-
LAKE SUPERIOR

STATION/POSITION TIME  TEMP    WIND        PRES    WAVE
                       AIR SEA DIR/SP/G            HT/PER
                 (UTC) (F)     (DEG/KT/KT) (MB)    (FT/S)
W MID LAKE BUOY  1150   47 39  180/ 10/ 12 1013.1F   0
DEVILS ISLAND    1200   62     190/  7/ 10 1013.0F
SAXON HARBOR     1140   68     200/  4/  7 1013.5F
$$

LMZ867-665-643>646-051300-
LAKE MICHIGAN

STATION/POSITION TIME  TEMP    WIND        PRES    WAVE
                       AIR SEA DIR/SP/G            HT/PER
                 (UTC) (F)     (DEG/KT/KT) (MB)    (FT/S)



USA.gov is the U.S. government's official web portal to all federal, state and local government web resources and services.